Regional Weather Roundup
Issued by NWS

Home | Current Version | Previous Version | Graphics & Text | Print | Product List | Glossary Off
Versions: 1 2 3 4 5 6 7 8 9 10 11 12 13 14 15 16 17 18 19 20 21 22 23 24 25 26 27 28 29 30 31 32 33 34 35 36 37 38 39 40 41 42 43 44 45 46 47 48 49 50

000
ASUS43 KMKX 270200
RWRWI

WISCONSIN REGIONAL WEATHER ROUNDUP
NATIONAL WEATHER SERVICE MILWAUKEE/SULLIVAN WI
900 PM CDT FRI MAY 26 2017

NOTE: "FAIR" INDICATES FEW OR NO CLOUDS BELOW 12,000 FEET WITH NO
SIGNIFICANT WEATHER AND/OR OBSTRUCTIONS TO VISIBILITY.

WIZ001-002-006>008-014>016-023>028-270300-
NORTHWEST WISCONSIN

CITY           SKY/WX    TMP DP  RH WIND       PRES   REMARKS
SUPERIOR ARPT  NOT AVBL
ASHLAND        LGT RAIN  64  56  75 W10       29.75R
HAYWARD        RAIN      61  57  87 SW10      29.79R FOG
SIREN          PTCLDY    63  61  91 CALM      29.75R
CUMBERLAND     CLOUDY    64  55  72 SW8       29.77R
RICE LAKE      CLOUDY    68  57  67 S8        29.78R
CHETEK         DRIZZLE   67  59  76 CALM      29.77R
LADYSMITH      PTCLDY    66  56  70 S5        29.80R
EAU CLAIRE     NOT AVBL
MENOMONIE      PTCLDY    67  56  69 SE7       29.77R
NEW RICHMOND   PTCLDY    68  57  67 SW3       29.76R
OSCEOLA        MOCLDY    70  51  51 W6        29.78R
$$

WIZ003>005-009-010-017-018-270300-
NORTH CENTRAL WISCONSIN

CITY           SKY/WX    TMP DP  RH WIND       PRES   REMARKS
MANITOWISH WTR CLEAR     60  57  89 S5        29.80R
ARBOR VITAE    CLEAR     62  56  80 SE3       29.80S
WOODRUFF       CLEAR     62  56  80 SE3       29.80S
RHINELANDER    CLOUDY    61  58  90 SE3       29.82S
EAGLE RIVER    CLOUDY    62  52  69 S3        29.82S
LAND O LAKES   CLOUDY    61  56  82 CALM      29.83S
PHILLIPS       CLEAR     61  55  80 CALM      29.79R
TOMAHAWK       CLEAR     58  56  92 CALM      29.81S
MEDFORD        CLEAR     60  55  81 S5        29.81R
MERRILL        CLEAR     64  55  70 S3        29.82R
$$

WIZ029-030-035-036-043>047-270300-
CENTRAL WISCONSIN

CITY           SKY/WX    TMP DP  RH WIND       PRES   REMARKS
WAUSAU         CLEAR     62  54  74 S5        29.80S
MOSINEE        PTCLDY    61  54  77 S6        29.83S
MARSHFIELD     CLOUDY    60  53  77 S6        29.81R
STEVENS POINT  CLEAR     61  50  66 S6        29.83S
WAUPACA        CLEAR     64  55  70 S6        29.83S
WAUTOMA        CLEAR     62  54  74 S5        29.84S
WISC RAPIDS    CLEAR     62  54  74 S3        29.83S
CAMP DOUGLAS   NOT AVBL
$$

WIZ011>013-019>022-031-037>040-048>050-270300-
NORTHEAST WISCONSIN

CITY           SKY/WX    TMP DP  RH WIND       PRES   REMARKS
ANTIGO         CLOUDY    62  57  82 S8        29.83S
SHAWANO        CLOUDY    66  56  69 S5        29.84R
OCONTO         CLOUDY    61  54  78 SE3       29.83R
STURGEON BAY   PTCLDY    58  52  80 SE3       29.85S
GREEN BAY      CLOUDY    63  58  83 S6        29.84R
MANITOWOC      NOT AVBL
APPLETON       MOCLDY    61  52  72 S6        29.83R
CLINTONVILLE   MOCLDY    63  54  72 SE6       29.83S
OSHKOSH        PTCLDY    59  53  80 S6        29.84R
$$

WIZ032>034-041-042-053>061-270300-
SOUTHWEST WISCONSIN

CITY           SKY/WX    TMP DP  RH WIND       PRES   REMARKS
LA CROSSE      PTCLDY    67  58  72 S7        29.80R
SPARTA         CLEAR     63  56  79 S3        29.82R
VIROQUA        PTCLDY    61  56  82 SW5       29.83R
BOSCOBEL       CLEAR     60  57  89 CALM      29.83R
PRAIRIE DU CHI PTCLDY    63  57  79 CALM      29.81F
PLATTEVILLE    CLEAR     63  58  84 SE3       29.84S
$$

WIZ056-057-062-063-064-067-068-270300-
SOUTH CENTRAL WISCONSIN

CITY           SKY/WX    TMP DP  RH WIND       PRES   REMARKS
REEDSBURG      CLEAR     60  54  78 CALM      29.84S
BARABOO/DELLS  PTCLDY    59  51  75 SE5       29.84S
LONE ROCK      NOT AVBL
MINERAL POINT  CLEAR     63  57  82 E3        29.85R
MADISON        PTCLDY    58  53  84 E5        29.85R
MIDDLETON      CLEAR     61  54  78 CALM      29.85S
WATERTOWN      CLEAR     59  54  84 CALM      29.86R
MONROE         CLOUDY    59  54  82 E5        29.85R
JANESVILLE     MOCLDY    61  54  77 E7        29.85R
$$

WIZ051-052-058>065-066-070>072-270300-
SOUTHEAST WISCONSIN

CITY           SKY/WX    TMP DP  RH WIND       PRES   REMARKS
MILWAUKEE      MOCLDY    54  52  93 CALM      29.86R
WAUKESHA       CLEAR     55  54  94 CALM      29.87R
MILWAUKEE/TIMM CLEAR     57  52  82 CALM      29.87R
RACINE         MOCLDY    51  50  96 CALM      29.87R
KENOSHA        MOCLDY    56  53  90 E3        29.85R
FOND DU LAC    PTCLDY    62  52  69 S5        29.85R
SHEBOYGAN      MOCLDY    57  54  89 S3        29.86R
WEST BEND      CLEAR     59  54  82 CALM      29.86R
JUNEAU         CLEAR     58  53  83 CALM      29.87R
$$

LSZ147-162-270300-
LAKE SUPERIOR

STATION/POSITION TIME  TEMP    WIND        PRES    WAVE
                       AIR SEA DIR/SP/G            HT/PER
                 (UTC) (F)     (DEG/KT/KT) (MB)    (FT/S)
W MID LAKE BUOY  0050   44 37  100/  8/  8 1007.8R   0
DEVILS ISLAND    0100   53     100/  5/  6 1006.5R
PORT WING        0140   48     180/  6/  7 1008.1R
SAXON HARBOR     0130   68     170/  3/  6 1006.8S
$$

LMZ867-665-643>646-270300-
LAKE MICHIGAN

STATION/POSITION TIME  TEMP    WIND        PRES    WAVE
                       AIR SEA DIR/SP/G            HT/PER
                 (UTC) (F)     (DEG/KT/KT) (MB)    (FT/S)
CHAMBERS ISLAND  0140   59     130/  2/  5 1009.8F
N MID LAKE BUOY  0050   45 42  220/  4/  4 1012.0R   0
NORTHPORT PIER   0140   56     210/  2/  5 1010.5S
ALGOMA LAKESHORE 0016          220/  3/  6   N/A
KEWAUNEE LAKESHO 0130   53     180/  4/  5 1010.3S
SHEBOYGAN LAKESH 0100   49     130/  2/  3 1010.5S
PORT WASHINGTON  0140   54     280/  1/  3 1012.2R
ATWATER BUOY     0009   48      10/  4/  6 1010.9F
MILWAUKEE LAKESH 0140   50     120/  2/  2   N/A
S MID LAKE BUOY  0050   49 47   10/  2/  4 1011.5R   0
KENOSHA   LAKESH 0100   53      90/  5/  6 1010.5
$$

TC  - TEMPERATURE IN CELSIUS
VSB - VISIBILITY IN STATUTE MILES
WCI - WIND CHILL INDEX
HX  - HEAT INDEX





USA.gov is the U.S. government's official web portal to all federal, state and local government web resources and services.